Home > Weather > Fetsund > Past weeks

Flag for Norway Past Weather in Fetsund, Norway — Yesterday and Last 2 Weeks

Now
58 °F

Cool.


Feels Like: 58 °F
Forecast: 51 / 75 °F
Wind: 6 mph from Northeast

Location: Oslo-Blindern

Current Time: May 30, 2016 at 12:48:10 PM

Latest Report: May 30, 2016 at 12:00 PM


Visibility: 17 mi

Pressure: 30.18 "Hg

Humidity: 82%

Dew Point: 53 °F

Location of FetsundLocation

Past Weather in Fetsund — Graph

°F

Fetsund Temperature Yesterday

Maximum temperature yesterday: 58 °F (at 12:00 PM)
Minimum temperature yesterday: 55 °F (at 6:00 AM)
Average temperature yesterday: 56 °F

High & Low Weather Summary for the Past Weeks

 TemperatureHumidityPressure
High68 °F (May 27, 3:00 PM)98% (May 22, 4:00 AM)30.20 "Hg (May 22, 4:00 AM)
Low38 °F (May 17, 5:00 AM)24% (May 16, 5:00 PM)29.62 "Hg (May 17, 7:00 PM)
Average55 °F70%29.92 "Hg
* Reported May 15 11:00 AM — May 30 11:00 AM, Fetsund, Weather by CustomWeather, © 2016

Note: Actual official high and low records may vary slightly from our data, if they occured in-between our weather recording intervals... More about our weather records

Advertising

Fetsund Weather History for the Previous 24 Hours

Scroll right to see more
 ConditionsComfort  
Time TempWeatherWind HumidityBarometerVisibility
11:00 AM
Mon, May 30
57 °FOvercast.5 mph85%30.19 "Hg37 mi
10:00 AM55 °FCool.5 mph88%30.19 "HgN/A
9:00 AM55 °FLots of rain. Cloudy.6 mph90%30.18 "Hg6 mi
8:00 AM56 °FDrizzle. Cloudy.2 mph85%30.19 "Hg15 mi
7:00 AM56 °FCool.7 mph84%30.17 "HgN/A
6:00 AM56 °FCool.7 mph85%30.17 "Hg22 mi
5:00 AM55 °FCool.5 mph88%30.18 "Hg19 mi
4:00 AM56 °FCool.5 mph89%30.18 "Hg19 mi
3:00 AM56 °FCool.5 mph90%30.19 "Hg22 mi
2:00 AM56 °FCool.5 mph91%30.18 "HgN/A
1:00 AM56 °FRain showers. Overcast.5 mph93%30.18 "Hg18 mi
12:00 AM55 °FLots of rain. Overcast.5 mph94%30.17 "Hg11 mi
11:00 PM
Sun, May 29
55 °FRain. Overcast.5 mph94%30.16 "Hg5 mi
10:00 PM56 °FCool.5 mph89%30.16 "Hg13 mi
9:00 PM56 °FCool.5 mph87%30.15 "HgN/A
8:00 PM57 °FOvercast.5 mph87%30.14 "Hg25 mi
3:00 PM55 °FLight rain. Cloudy.5 mph91%30.14 "Hg17 mi
2:00 PM56 °FRain showers. Overcast.5 mph89%30.14 "Hg7 mi
1:00 PM57 °FRain showers. Cloudy.7 mph83%30.14 "Hg14 mi
12:00 PM58 °FCool.5 mph78%30.15 "Hg18 mi
Weather by CustomWeather, © 2016

See weather overviewHow to use our weather pages